Home > Time Zones > World Clock > Weather > Cuba > Havana > Past weeks

Flag for Cuba Weather past 2 weeks in Havana, Cuba

Now
72 °F

Passing clouds.


Feels Like: 71 °F
Forecast: 71 / 82 °F
Wind: 6 mph from East

Location: Aeropuerto Jose Marti - Rancho-Boyeros - Habana

Current Time: Dec 26, 2014 at 8:45:03 PM

Latest Report: Dec 26, 2014 at 7:55 PM


Visibility: 6 mi

Pressure: 30.12 "Hg

Humidity: 83%

Dew point: 66 °F

Location of HavanaLocation

Historic Weather in Havana — Graph

°F

Havana temperature yesterday

Maximum temperature yesterday: 75 °F (at 12:55 AM)
Minimum temperature yesterday: 72 °F (at 3:55 AM)
Average temperature yesterday: 73 °F

Past Weeks' High & Low Weather Summary

 TemperatureHumidityPressure
High86 °F (Dec 23, 1:55 PM)94% (Dec 12, 1:55 AM)30.24 "Hg (Dec 12, 1:55 AM)
Low46 °F (Dec 13, 6:55 AM)41% (Dec 12, 12:55 PM)29.86 "Hg (Dec 23, 2:55 PM)
Average68 °F75%30.07 "Hg
* Reported Dec 11 6:55 PM — Dec 26 6:55 PM, Havana, Weather by CustomWeather, © 2014

Note: Actual official high and low records may vary slightly from our data, if they occured in-between our weather recording intervals... More about our weather records

Advertising

Havana weather history for previous 24 hours

 ConditionsComfort  
Time TempWeatherWind HumidityBarometerVisibility
6:55 PM
Dec 26
75 °FPassing clouds.2 mph74%30.12 "Hg6 mi
5:55 PM75 °FClear.2 mph69%30.09 "Hg6 mi
4:55 PM81 °FClear.3 mph54%30.09 "Hg6 mi
3:55 PM81 °FPassing clouds.6 mph54%30.07 "Hg6 mi
2:55 PM82 °FPassing clouds.7 mph51%30.09 "Hg6 mi
1:55 PM82 °FScattered clouds.7 mph55%30.09 "Hg6 mi
12:55 PM82 °FSunny.8 mph58%30.12 "Hg6 mi
11:55 AM81 °FPassing clouds.9 mph62%30.15 "Hg6 mi
10:55 AM79 °FPassing clouds.10 mph65%30.15 "Hg6 mi
9:55 AM77 °FPassing clouds.9 mph74%30.15 "Hg6 mi
8:55 AM73 °FPartly sunny.6 mph89%30.15 "Hg5 mi
7:55 AM72 °FPartly sunny.3 mph88%30.12 "Hg4 mi
6:55 AM72 °FPartly cloudy.5 mph88%30.09 "Hg5 mi
5:55 AM73 °FOvercast.5 mph89%30.09 "Hg6 mi
4:55 AM72 °FLow clouds.6 mph88%30.07 "Hg6 mi
3:55 AM72 °FOvercast.7 mph88%30.09 "Hg6 mi
2:55 AM72 °FLow clouds.10 mph88%30.09 "Hg6 mi
2:06 AM72 °FLight rain. Low clouds.9 mph88%30.12 "Hg3 mi
1:55 AM72 °FLow clouds.12 mph88%30.12 "Hg6 mi
12:55 AM72 °FDrizzle. Low clouds.16 mph88%30.12 "Hg5 mi
11:55 PM
Dec 25
72 °FOvercast.9 mph88%30.12 "Hg6 mi
10:55 PM72 °FLow clouds.8 mph83%30.15 "Hg6 mi
9:55 PM72 °FOvercast.9 mph83%30.15 "Hg6 mi
8:55 PM72 °FOvercast.10 mph78%30.15 "Hg6 mi
Weather by CustomWeather, © 2014

See weather overviewHow to use our weather pages